Wind_Speed
10 9 9 9 9 9 9 9 10 10 10 10 10 10 9 9 9 9 9 9 9 10 10 10 10 10 10 10 11 11 10 10 10 10 10 10 10 10 10 9 9 10 10 10
10 10 10 10 10 10 10 11 11 12 11 11 11 10 10 10 10 10 10 10 10 10 10 10 10 10 10 10 11 11 10 10 10 10 10 10 10 10 10 10 10 10 10 11
11 10 11 11 11 12 12 11 12 13 12 12 11 11 11 11 11 11 11 11 11 11 11 10 10 10 11 11 11 12 11 11 11 12 12 11 11 11 10 10 11 10 11 12
11 11 11 12 12 12 13 12 12 13 13 12 12 12 12 12 12 11 11 12 12 12 12 12 11 11 11 12 12 12 12 12 12 12 12 11 11 11 11 11 11 11 12 13
12 12 12 12 12 13 13 13 12 12 13 13 12 13 12 13 14 13 13 13 13 13 14 13 13 12 12 12 13 13 12 12 13 13 13 12 12 12 12 12 12 12 13 13
12 12 13 13 12 12 12 12 12 12 12 13 12 13 14 14 15 15 14 14 14 14 14 14 14 13 13 13 13 13 13 13 14 14 14 14 13 13 13 13 13 13 13 13
14 14 14 14 14 12 12 12 12 12 11 12 13 15 16 16 16 16 16 16 15 15 15 14 14 14 14 14 14 14 14 14 14 14 14 15 15 15 14 14 14 14 14 13
14 14 15 14 14 13 12 13 13 12 11 12 14 16 17 17 17 17 18 18 17 17 16 16 15 15 15 15 15 15 15 15 16 16 16 16 16 16 16 15 15 15 15 14
15 15 14 15 15 15 15 15 14 14 14 15 15 16 17 17 18 18 18 19 18 18 18 18 17 17 16 16 16 16 16 17 17 17 17 17 17 17 16 16 16 16 16 15
16 15 14 15 16 16 16 16 15 15 16 15 14 16 19 18 19 19 18 19 19 19 19 19 18 18 18 17 17 17 18 18 18 18 18 18 18 18 18 17 17 17 17 17
17 17 15 16 16 16 17 17 17 17 17 16 16 18 20 21 21 21 21 20 20 19 19 19 19 19 19 19 19 19 18 18 19 19 19 19 19 19 19 18 19 18 18 18
18 17 17 18 18 18 18 18 18 18 18 18 18 21 21 23 23 23 22 21 21 21 20 20 20 20 20 20 20 20 20 20 20 20 20 20 20 20 20 20 19 20 19 19
19 19 19 18 20 20 20 20 19 19 19 19 19 20 22 23 24 24 23 22 21 21 21 21 21 21 20 21 21 21 21 21 21 21 21 21 21 21 21 21 21 21 21 21
21 21 20 20 20 21 21 21 21 21 21 21 20 22 23 24 25 24 23 23 23 23 22 22 22 22 21 22 22 21 21 22 22 22 22 22 22 22 23 22 22 22 22 21
21 21 22 22 21 22 22 22 22 22 22 22 22 24 25 26 26 25 24 24 24 24 24 23 23 23 23 23 23 23 23 23 23 24 23 23 23 24 23 23 23 22 22 22
22 23 23 23 23 24 24 23 23 23 23 24 24 25 26 27 26 26 25 25 25 24 24 24 24 24 24 24 24 25 24 24 24 24 24 24 24 24 24 24 24 23 23 23
24 24 25 25 24 25 25 24 24 24 24 24 25 26 26 27 27 26 26 26 26 25 25 25 25 25 26 26 25 25 26 25 25 25 25 25 26 25 25 25 24 24 24 24
25 25 25 25 25 26 25 24 25 25 25 26 26 26 27 28 27 27 27 27 27 26 26 26 26 26 26 26 27 26 26 26 26 26 26 26 26 26 25 25 25 24 24 24
26 26 26 26 26 26 26 25 25 26 27 27 28 28 29 29 29 29 29 29 27 27 27 27 27 27 27 27 27 27 27 28 27 27 27 27 27 26 25 25 25 25 25 25
26 27 27 26 27 27 27 26 27 28 28 27 28 28 29 29 30 30 29 29 28 28 27 27 27 27 27 27 27 28 28 28 27 27 27 27 26 26 26 26 26 26 25 25
27 27 27 27 28 29 28 27 27 28 29 28 29 30 30 31 31 30 30 29 29 28 28 28 28 28 28 28 29 28 28 28 27 28 28 27 26 26 26 26 26 26 26 26
26 27 27 28 29 29 28 27 28 29 29 29 29 29 30 31 32 31 30 30 30 30 29 29 29 29 29 29 29 29 28 28 28 28 27 27 27 26 26 26 26 26 26 26
27 26 27 28 29 30 30 30 30 30 30 30 30 31 31 30 31 32 32 31 30 31 30 30 30 30 29 30 30 30 29 29 28 28 28 27 27 26 26 26 26 26 26 26
27 27 28 29 29 30 31 31 32 32 32 32 32 31 32 32 32 32 32 32 32 32 31 31 31 30 30 31 31 31 30 30 29 29 28 27 27 26 26 26 26 26 26 26
28 28 28 29 29 30 32 32 33 33 33 33 33 33 33 33 33 34 34 33 33 33 33 32 32 31 31 32 31 31 31 30 30 29 28 28 28 27 26 26 26 26 27 27
28 29 29 30 30 31 31 32 33 33 33 34 34 33 34 34 34 34 34 34 34 34 34 33 33 32 32 32 32 32 32 31 31 30 29 29 29 28 28 27 27 27 27 27
Wind_Direction
258 258 258 260 263 265 266 268 272 278 286 286 290 294 294 296 299 302 305 307 309 310 311 312 314 314 315 317 318 320 322 322 322 322 325 325 325 325 321 319 317 314 317 318
257 257 258 257 257 261 265 265 269 274 280 284 287 288 289 290 293 297 298 300 303 306 306 306 309 309 311 313 316 318 320 322 323 321 323 322 323 326 324 321 317 313 316 319
252 256 256 259 258 259 262 265 266 272 277 278 281 284 286 286 289 292 295 297 297 301 304 303 301 303 304 307 310 313 318 317 319 320 319 317 319 321 323 323 320 316 319 318
256 257 258 259 261 264 264 268 272 272 276 282 284 283 285 289 289 289 293 294 293 295 300 300 300 300 303 305 308 310 311 312 314 316 314 313 314 315 317 317 316 315 315 315
257 257 259 260 262 266 270 269 270 273 276 279 286 288 289 288 289 290 292 294 295 293 294 295 295 296 298 302 304 305 307 308 309 311 311 308 309 311 312 312 312 313 312 312
258 260 261 262 263 267 269 269 270 274 278 280 287 288 285 286 289 291 292 292 293 294 294 292 293 294 295 298 299 301 303 304 305 306 307 306 306 306 306 307 308 309 309 309
259 259 262 262 264 268 269 271 272 278 285 287 289 288 284 282 285 285 288 291 292 291 294 291 290 291 293 296 296 297 299 301 302 302 301 303 302 302 302 302 304 304 304 305
262 263 262 263 264 267 268 267 268 268 267 270 279 283 287 284 284 283 284 286 288 287 288 289 288 289 291 292 293 294 296 298 299 300 299 300 299 300 300 299 299 300 300 303
260 265 267 265 266 267 270 270 269 267 263 263 268 277 281 281 283 284 283 283 284 285 285 285 285 285 288 290 292 293 294 295 297 299 299 298 297 297 297 297 297 297 297 297
262 265 267 267 268 267 267 270 268 268 267 264 266 269 275 280 284 287 287 284 283 284 284 282 283 283 285 288 291 293 293 293 294 296 297 297 296 295 295 295 294 294 294 292
261 264 266 269 270 273 270 267 265 267 269 267 265 267 272 276 281 285 285 284 284 283 282 281 281 283 283 285 288 290 292 291 291 292 294 295 294 294 293 293 292 291 292 291
260 263 268 271 271 272 271 269 268 267 267 267 270 274 276 277 279 282 283 283 283 281 281 281 280 281 282 284 286 289 290 290 290 290 291 292 291 291 292 292 291 289 290 290
261 265 268 267 271 271 271 269 268 267 268 268 268 272 275 276 276 278 281 282 281 279 281 283 283 282 283 285 287 288 290 290 290 289 289 289 289 289 289 290 290 289 288 289
264 266 268 266 268 272 274 271 269 268 268 268 266 267 272 276 278 279 279 280 279 279 281 283 284 284 283 285 287 288 289 291 291 289 288 287 287 287 288 288 288 288 288 289
265 268 269 268 269 269 271 270 268 266 268 269 268 267 270 274 278 280 279 280 280 280 280 281 282 282 283 284 286 287 289 290 290 290 288 287 287 286 286 286 285 286 286 288
266 268 270 269 270 270 269 269 269 268 267 267 268 268 269 273 278 278 278 278 278 277 278 279 279 280 281 282 284 285 288 288 288 287 287 287 287 287 286 285 283 283 285 287
267 270 272 271 271 272 271 270 270 270 268 268 268 268 270 272 275 277 278 279 279 279 278 278 278 280 281 282 284 286 288 289 288 288 287 287 287 287 286 284 283 283 284 285
270 271 272 272 272 273 275 273 271 271 270 269 270 269 271 273 275 276 277 278 278 278 279 279 279 280 281 282 283 286 288 288 288 287 287 287 287 286 285 284 283 283 284 284
268 270 271 272 272 275 276 274 273 273 273 272 272 271 272 273 274 275 275 276 277 278 279 279 280 280 281 282 284 285 287 288 287 288 287 286 285 284 284 283 283 283 282 282
267 269 270 271 272 274 277 277 275 275 274 273 273 273 273 274 275 276 275 274 274 275 277 278 279 279 280 281 284 285 286 288 287 288 288 288 284 283 282 283 283 283 283 283
268 268 269 270 271 273 276 277 276 275 276 275 275 275 274 275 276 277 274 272 272 272 274 276 278 279 280 281 283 284 285 288 288 288 288 287 283 281 280 281 282 282 283 284
270 269 269 270 271 273 276 277 277 276 278 278 278 277 276 276 276 276 275 273 272 272 273 274 276 278 279 280 281 282 282 285 287 287 287 286 284 283 281 281 281 280 282 284
269 270 270 269 270 272 274 275 276 276 276 277 277 277 276 276 276 276 275 274 272 272 272 273 274 276 278 280 280 281 279 281 284 286 285 284 284 282 281 281 280 280 282 284
270 271 270 271 272 273 274 274 275 276 277 277 276 275 276 277 277 277 277 275 274 274 273 272 273 274 276 278 279 281 282 282 281 282 283 283 283 281 282 281 280 281 282 284
269 270 270 271 272 273 274 275 275 276 277 278 278 277 276 275 276 277 277 277 276 274 273 272 273 274 275 276 278 280 282 282 281 281 283 282 281 281 280 280 280 279 280 282
269 270 272 273 274 275 276 277 277 278 278 278 278 277 277 276 276 277 277 276 275 275 273 271 272 273 274 276 277 279 280 280 281 281 282 281 279 279 279 279 278 278 279 281
Height
5857 5859 5859 5859 5860 5861 5861 5861 5861 5860 5860 5860 5859 5859 5859 5858 5858 5857 5857 5856 5855 5855 5854 5853 5852 5851 5850 5850 5848 5847 5847 5846 5844 5843 5842 5841 5840 5839 5838 5838 5837 5836 5835 5834
5856 5856 5857 5857 5858 5858 5858 5859 5859 5859 5858 5858 5857 5857 5857 5857 5856 5856 5856 5855 5854 5854 5853 5852 5851 5850 5849 5848 5847 5846 5845 5844 5843 5842 5841 5840 5839 5838 5837 5836 5835 5835 5834 5833
5853 5854 5854 5855 5856 5856 5856 5857 5857 5856 5856 5855 5856 5856 5855 5855 5855 5854 5854 5853 5853 5852 5851 5851 5850 5849 5848 5847 5846 5845 5844 5843 5842 5841 5839 5838 5837 5836 5835 5834 5834 5833 5832 5831
5850 5851 5852 5853 5853 5853 5854 5854 5854 5854 5854 5853 5853 5853 5853 5852 5852 5852 5852 5851 5851 5850 5849 5849 5848 5847 5846 5845 5844 5843 5842 5841 5840 5839 5838 5837 5836 5835 5834 5833 5832 5831 5830 5829
5848 5849 5849 5850 5851 5851 5851 5851 5851 5851 5851 5851 5851 5851 5851 5850 5850 5850 5850 5849 5848 5848 5847 5846 5846 5845 5844 5844 5842 5841 5840 5839 5838 5837 5836 5835 5834 5833 5832 5831 5830 5829 5828 5827
5845 5846 5846 5847 5848 5848 5849 5849 5849 5849 5849 5849 5849 5849 5849 5848 5847 5847 5847 5846 5846 5845 5845 5844 5843 5843 5842 5841 5840 5839 5838 5837 5836 5834 5833 5832 5831 5830 5829 5828 5828 5826 5825 5824
5843 5843 5844 5844 5845 5846 5846 5847 5847 5846 5846 5847 5847 5847 5847 5846 5845 5845 5844 5843 5843 5843 5842 5841 5841 5840 5839 5838 5837 5837 5836 5835 5833 5832 5831 5830 5829 5828 5827 5826 5825 5824 5822 5821
5839 5840 5841 5841 5842 5843 5843 5844 5845 5845 5845 5845 5845 5844 5844 5843 5842 5842 5841 5840 5840 5839 5839 5838 5838 5837 5836 5835 5834 5834 5833 5831 5830 5829 5828 5826 5826 5825 5823 5822 5822 5821 5819 5818
5836 5837 5838 5838 5839 5840 5840 5840 5841 5841 5841 5842 5842 5841 5840 5839 5838 5838 5838 5837 5836 5836 5835 5835 5834 5833 5833 5832 5831 5830 5829 5828 5827 5825 5824 5823 5822 5821 5820 5819 5818 5817 5816 5815
5833 5834 5834 5834 5835 5836 5837 5837 5837 5837 5837 5838 5839 5838 5836 5835 5835 5834 5834 5833 5832 5832 5831 5831 5830 5830 5829 5828 5827 5826 5825 5824 5823 5821 5820 5819 5818 5817 5816 5815 5814 5813 5812 5811
5829 5831 5831 5831 5831 5832 5833 5833 5833 5833 5833 5834 5834 5836 5832 5831 5831 5830 5829 5828 5827 5827 5827 5827 5826 5825 5825 5824 5823 5821 5820 5819 5818 5817 5816 5815 5814 5812 5811 5810 5809 5808 5808 5807
5825 5826 5827 5827 5827 5827 5827 5828 5829 5829 5829 5829 5830 5832 5828 5827 5826 5825 5824 5824 5823 5823 5822 5822 5821 5821 5820 5819 5818 5817 5816 5815 5813 5812 5811 5810 5809 5808 5806 5805 5804 5803 5803 5802
5821 5822 5823 5823 5824 5823 5822 5823 5824 5824 5824 5824 5825 5827 5823 5822 5821 5820 5820 5819 5818 5818 5817 5817 5816 5816 5815 5814 5813 5812 5811 5810 5808 5807 5806 5805 5803 5802 5801 5800 5799 5798 5797 5797
5816 5817 5818 5819 5818 5817 5817 5817 5818 5818 5819 5819 5820 5819 5817 5816 5815 5815 5814 5814 5813 5813 5812 5812 5811 5810 5810 5809 5807 5807 5805 5804 5803 5801 5800 5799 5798 5796 5795 5794 5793 5792 5792 5791
5811 5812 5812 5812 5812 5811 5812 5812 5812 5812 5813 5813 5813 5813 5811 5810 5809 5809 5809 5808 5808 5807 5807 5806 5805 5804 5804 5803 5802 5801 5799 5798 5796 5795 5794 5793 5791 5790 5789 5788 5787 5786 5785 5785
5804 5805 5806 5806 5806 5805 5806 5806 5806 5806 5807 5807 5806 5806 5805 5804 5804 5803 5802 5802 5801 5801 5800 5800 5799 5798 5798 5797 5796 5794 5793 5792 5790 5788 5787 5786 5785 5784 5782 5781 5781 5780 5779 5779
5798 5799 5799 5799 5799 5798 5799 5800 5799 5799 5799 5800 5799 5800 5799 5798 5797 5797 5796 5795 5795 5794 5794 5793 5793 5792 5791 5790 5789 5788 5787 5785 5783 5782 5780 5779 5778 5777 5776 5775 5774 5773 5773 5772
5792 5792 5792 5792 5793 5792 5795 5793 5792 5792 5792 5792 5791 5792 5792 5791 5791 5790 5789 5789 5788 5788 5788 5787 5786 5785 5784 5783 5782 5780 5779 5778 5776 5775 5774 5772 5771 5770 5769 5768 5767 5767 5766 5765
5785 5785 5785 5785 5785 5785 5786 5786 5786 5785 5785 5785 5784 5784 5784 5784 5784 5783 5782 5781 5782 5781 5780 5779 5779 5778 5777 5776 5775 5774 5772 5770 5769 5767 5766 5765 5764 5763 5762 5761 5760 5760 5759 5758
5778 5778 5779 5778 5778 5778 5779 5779 5778 5779 5777 5777 5777 5777 5777 5776 5776 5776 5775 5774 5773 5773 5773 5772 5771 5770 5769 5768 5767 5766 5764 5763 5761 5760 5758 5757 5756 5755 5754 5754 5753 5752 5752 5751
5771 5771 5771 5771 5770 5771 5772 5771 5771 5772 5771 5770 5769 5769 5769 5768 5768 5767 5766 5766 5765 5765 5765 5764 5764 5763 5762 5760 5759 5758 5756 5755 5753 5752 5751 5749 5748 5747 5746 5746 5745 5745 5744 5743
5763 5764 5764 5764 5763 5765 5764 5763 5764 5763 5762 5761 5761 5760 5760 5759 5759 5758 5757 5757 5757 5756 5756 5756 5755 5755 5753 5752 5751 5750 5749 5747 5745 5744 5743 5741 5740 5739 5739 5738 5737 5737 5736 5736
5756 5757 5757 5757 5758 5757 5756 5755 5755 5754 5754 5753 5753 5752 5751 5751 5750 5749 5749 5749 5748 5748 5747 5747 5747 5746 5745 5744 5742 5741 5740 5739 5737 5735 5734 5733 5732 5732 5731 5731 5730 5729 5728 5728
5749 5749 5749 5749 5749 5749 5748 5747 5747 5746 5745 5745 5744 5743 5743 5742 5741 5741 5740 5739 5739 5739 5738 5738 5737 5737 5736 5735 5734 5733 5731 5730 5729 5727 5726 5725 5724 5724 5723 5723 5722 5722 5721 5720
5742 5742 5741 5741 5741 5740 5739 5739 5738 5737 5737 5736 5735 5734 5734 5733 5732 5731 5731 5730 5730 5729 5729 5728 5728 5727 5727 5726 5725 5724 5722 5721 5720 5719 5718 5717 5717 5716 5716 5715 5714 5714 5713 5712
5734 5734 5733 5733 5732 5731 5731 5730 5729 5728 5728 5726 5726 5725 5724 5723 5723 5722 5721 5720 5720 5719 5719 5718 5718 5717 5717 5716 5715 5714 5713 5712 5711 5710 5710 5709 5708 5707 5707 5707 5706 5705 5705 5704